Skip Page Navigation
NASA JPL Caltech
NASA Logo - Jet Propulsion Laboratory + View the NASA Portal
+ Center for Near-Earth Object Studies
JPL Home Earth Solar System Stars & Galaxies Technology
JPL Solar System Dynamics
BODIES ORBITS EPHEMERIDES TOOLS PHYSICAL DATA DISCOVERY FAQ SITE MAP
JPL Small-Body Database Browser
Search: [ help ]  
150048 (2005 YV94)
Classification: Main-belt Asteroid          SPK-ID: 2150048
Ephemeris | Orbit Diagram | Orbital Elements | Mission Design | Physical Parameters | Discovery Circumstances ]

[ show orbit diagram ]
Orbital Elements at Epoch 2459200.5 (2020-Dec-17.0) TDB
Reference: JPL 20 (heliocentric ecliptic J2000)
 Element Value Uncertainty (1-sigma)   Units 
e .1753190320102283 7.236e-08  
a 2.670559276175905 1.7135e-08 au
q 2.202359408950809 1.9206e-07 au
i 12.54399737175403 4.7828e-06 deg
node 342.3039844766423 2.0314e-05 deg
peri 28.46572408732299 2.3915e-05 deg
M 197.0822794799504 1.3847e-05 deg
tp 2459921.885791597928
(2022-Dec-08.38579160)
6.378e-05 TDB
period 1594.049340650419
4.36
1.5342e-05
4.2e-08
d
yr
n .2258399353266627 2.1736e-09 deg/d
Q 3.138759143401 2.0139e-08 au
  Orbit Determination Parameters
   # obs. used (total)      647  
   data-arc span      8646 days (23.67 yr)  
   first obs. used      1996-09-18  
   last obs. used      2020-05-21  
   planetary ephem.      DE431  
   SB-pert. ephem.      SB431-N16  
   condition code      0  
   norm. resid. RMS      .52848  
   source      ORB  
   producer      Otto Matic  
   solution date      2020-Nov-12 13:55:26  

Additional Information
 Earth MOID = 1.20706 au 
 Jupiter MOID = 2.35291 au 
 T_jup = 3.325 
[ show covariance matrix ]

Ephemeris | Orbit Diagram | Orbital Elements | Mission Design | Physical Parameters | Discovery Circumstances ]

Physical Parameter Table
Parameter Symbol Value Units Sigma Reference Notes
absolute magnitude H 15.32   n/a E2021B55  

150048 (2005 YV94)          Discovered 2005-Dec-23 by LINEAR at Socorro
Reference: 20070202/Numbers.arcLast Updated: 2007-02-06

Alternate Designations
 2005 YV94 = 1996 SX5 
Ephemeris | Orbit Diagram | Orbital Elements | Mission Design | Physical Parameters | Discovery Circumstances ]
ABOUT SSD CREDITS/AWARDS PRIVACY/COPYRIGHT GLOSSARY LINKS
FirstGov 2021-Apr-11 09:22 UT
(server date/time)  
NASA Home Page
Site Manager:   Ryan S. Park
Webmaster  Alan B. Chamberlin